Hourly Data Report for September 10, 2010

IQALUIT CLIMATE
NUNAVUT

63°44'50.000" N
68°32'40.000" W
33.50 m
2402592
71321
XFB

Download Data

Hourly Data (September 2010)
Hourly Data Report for September 10, 2010
TIME
LST
Temp Definition
°C
Dew Point Definition
°C
Rel Hum Definition
%
Precip. Amount Definition
mm

Wind Dir Definition
10's deg

Wind Spd Definition
km/h
Visibility Definition
km
Stn Press Definition
kPa
Hmdx Definition


Wind Chill Definition


Weather Definition


00:00 3.8 1.5 85   31 20   101.70     LegendNANA
01:00 3.7 1.8 87   31 20   101.77     LegendNANA
02:00 3.3 1.6 89   32 19   101.80     LegendNANA
03:00 3.1 1.8 91   32 22   101.83     LegendNANA
04:00 2.6 1.2 90   32 20   101.85     LegendNANA
05:00 2.7 0.9 88   32 22   101.90     LegendNANA
06:00 3.0 0.7 85   32 22   101.95     LegendNANA
07:00 3.4 0.5 81   32 22   101.95     LegendNANA
08:00 4.3 0.4 76   32 24   101.97     LegendNANA
09:00 4.6 -1.3 66   31 22   101.97     LegendNANA
10:00 4.3 1.4 81   33 19   101.97     LegendNANA
11:00 4.8 1.0 76   32 22   101.97     LegendNANA
12:00 5.4 0.8 72   32 19   101.96     LegendNANA
13:00 5.8 2.2 78   34 24   101.96     LegendNANA
14:00 6.9 1.0 66   33 24   101.95     LegendNANA
15:00 7.1 1.1 66   31 20   101.95     LegendNANA
16:00 5.4 2.3 80   33 30   101.94     LegendNANA
17:00 5.3 1.1 74   33 28   101.96     LegendNANA
18:00 4.1 1.2 81   31 26   101.99     LegendNANA
19:00 2.9 1.0 87   32 11   101.99     LegendNANA
20:00 1.9 0.7 92   32 7   101.97     LegendNANA
21:00 0.8 0.0 94   1 2   101.95     LegendNANA
22:00 -0.6 -1.1 96   36 6   101.94   -3 LegendNANA
23:00 -1.3 -1.7 97   36 7   101.92   -4 LegendNANA

Notes on Data Quality.

Legend

  • E = Estimated
  • M = Missing
  • NA = Not Available*
  • [empty] = Indicates an unobserved value
Date modified: